Temp
19 18 18 17 17 17 17 17 17 17 17 18 18 18 18 17 17 17 17 17 16 16 15 14 14 13 13 12 12 12 12 11 11 11 11 11 11 11 11 11 11 11 11
18 18 18 18 17 17 17 17 17 17 17 18 18 18 18 18 18 17 17 17 16 16 16 15 14 13 13 13 12 12 11 11 11 11 11 11 11 11 11 11 11 11 11
18 18 18 18 18 18 17 17 17 17 17 17 18 18 18 18 18 18 17 17 17 16 16 15 14 14 13 13 13 12 11 11 11 11 10 10 10 10 10 10 10 10 11
19 19 19 19 19 18 18 18 18 17 17 17 17 17 17 17 18 18 17 17 17 16 16 16 15 14 13 13 13 12 12 11 11 10 10 10 10 10 10 10 10 10 10
19 19 19 19 19 19 18 18 18 17 17 18 18 18 18 17 17 17 17 17 17 17 16 16 15 14 14 13 13 13 12 11 11 10 10 10 10 10 10 10 10 10 10
20 19 19 19 19 19 19 18 18 18 17 17 17 17 17 17 17 17 17 17 17 17 16 16 15 14 14 13 13 13 13 12 11 10 10 10 10 10 10 10 10 10 10
21 20 19 19 19 19 19 19 18 18 17 17 16 17 17 17 17 17 17 17 17 17 16 16 15 15 14 13 13 13 13 12 11 10 10 10 10 10 10 9 9 9 10
20 20 20 20 19 19 19 19 18 18 17 17 16 14 14 16 17 17 17 17 16 16 16 15 15 14 14 13 13 12 12 12 11 10 10 10 9 9 9 9 9 9 9
19 19 19 20 19 19 19 19 18 17 16 17 16 16 12 13 11 16 16 16 15 15 14 14 14 13 13 12 11 11 11 11 11 10 9 8 8 8 8 9 9 9 9
20 19 19 19 19 19 18 18 18 17 17 15 15 15 15 14 13 12 15 15 16 16 16 15 14 13 13 12 11 10 9 9 9 9 8 8 7 7 7 7 8 8 8
19 18 18 18 18 18 17 17 17 17 16 15 15 15 14 13 12 11 13 13 12 13 13 12 12 12 11 11 10 9 8 8 7 6 6 6 6 6 6 6 6 6 7
18 18 18 18 18 17 17 17 17 16 15 15 14 14 14 13 11 11 10 12 11 12 13 12 11 11 10 9 9 8 7 6 6 5 5 5 5 5 5 6 6 6 6
18 18 18 18 18 18 17 17 16 16 15 14 14 14 14 13 13 13 12 11 9 8 9 10 9 8 8 8 8 8 7 6 5 5 5 6 5 5 6 6 5 6 6
17 17 17 17 16 17 17 16 15 14 14 14 13 13 13 13 12 12 11 11 7 6 6 7 7 7 6 6 6 6 5 5 4 4 4 4 5 5 4 4 4 4 4
14 14 15 15 15 14 14 14 15 14 15 13 12 12 12 11 12 10 10 9 9 8 6 4 5 4 4 4 4 4 4 3 3 3 3 3 3 3 3 3 3 3 3
12 13 13 13 13 13 13 13 13 13 11 10 11 10 9 9 9 9 8 8 7 7 6 4 2 3 2 2 3 3 3 3 2 2 2 2 2 2 2 2 2 3 3
11 11 11 11 11 11 10 10 10 9 8 7 7 7 6 6 6 6 7 6 6 6 4 2 2 2 2 1 1 1 1 1 1 1 1 1 1 1 2 2 2 2 2
9 9 9 9 9 9 8 8 7 7 7 6 6 5 5 5 5 5 5 4 4 4 4 2 1 1 1 0 0 0 -0 -0 -1 1 0 1 1 1 1 1 1 1 1
7 7 7 7 7 7 7 6 6 5 5 5 5 4 3 3 3 3 3 3 3 3 3 2 -0 -0 -1 -1 -1 -0 -1 -0 0 0 0 0 0 -0 -0 0 0 0 0
5 5 5 5 5 5 5 4 4 4 3 3 3 2 2 2 2 2 2 1 1 1 1 1 -0 -1 -1 -1 -1 -1 -0 -0 0 -0 -0 -0 -1 -0 -0 -1 -1 -1 -0
3 3 3 3 3 3 3 3 3 2 2 1 0 0 0 0 0 1 1 0 1 0 -0 -0 -1 -1 -1 -1 -1 -1 -1 -1 -1 -1 -1 -1 -1 0 0 -0 -0 -0 -0
1 1 1 1 0 0 1 2 2 1 -0 -0 -1 -0 -0 -0 -1 -1 -1 -1 -1 -1 -1 -1 -1 -1 -2 -1 -2 -2 -2 -2 -3 -1 -2 -1 -1 -0 -1 -1 -1 -2 -2
0 0 0 0 0 0 -0 1 1 1 1 -0 -1 -1 -0 -1 -1 -1 -2 -1 -1 -2 -2 -2 -2 -2 -2 -2 -2 -2 -3 -3 -3 -2 -3 -2 -1 -1 -1 -1 -1 -2 -2
0 0 0 0 0 -0 -1 1 1 0 -1 -1 -1 -1 -1 -2 -2 -2 -2 -2 -2 -2 -2 -2 -2 -2 -2 -3 -3 -3 -3 -3 -3 -3 -3 -4 -3 -2 -1 -1 -2 -2 -3
-0 -0 0 -0 -0 -1 0 0 -0 -0 -1 -1 -2 -2 -2 -2 -2 -3 -2 -3 -2 -3 -3 -3 -3 -3 -3 -3 -2 -3 -3 -3 -3 -3 -4 -4 -4 -4 -3 -2 -2 -2 -3
-1 -1 -1 -1 -1 -1 -2 -1 -1 -1 -1 -2 -2 -2 -3 -3 -3 -3 -3 -3 -3 -3 -3 -3 -3 -3 -3 -3 -3 -3 -3 -4 -4 -5 -4 -5 -5 -5 -5 -4 -3 -2 -3
Height
838 840 842 843 845 846 847 848 849 850 851 852 853 853 854 855 856 857 857 857 857 858 857 857 857 858 858 859 859 859 858 859 860 859 859 858 859 860 859 859 858 858 858
838 839 840 842 843 845 846 847 848 849 850 851 852 852 853 854 854 855 855 856 856 856 856 856 857 857 859 859 860 860 860 859 859 860 860 860 860 860 860 860 860 859 859
836 837 839 840 842 844 844 845 846 847 848 849 850 851 851 852 852 853 853 854 855 855 855 856 857 858 859 860 861 861 861 861 861 861 861 861 861 861 861 862 861 860 860
834 836 837 839 840 842 843 843 844 845 846 847 848 849 850 850 850 850 851 852 852 853 853 854 855 856 857 858 859 859 860 861 861 861 861 862 861 861 862 862 862 862 860
832 833 834 836 838 839 840 842 842 843 844 845 845 846 847 847 847 848 847 848 848 848 849 850 851 852 854 856 857 858 860 861 861 861 861 862 862 861 861 862 862 861 862
828 829 831 833 835 836 837 839 839 841 841 842 842 843 843 843 844 844 844 844 845 845 846 847 849 849 851 854 856 858 859 860 862 862 862 862 863 863 862 862 862 861 861
824 826 827 829 831 832 833 835 836 837 837 839 840 839 839 839 839 839 840 840 840 841 841 842 844 846 846 849 851 855 857 858 860 862 862 862 863 863 862 862 861 860 860
820 822 823 825 827 828 830 831 832 833 834 835 837 838 837 835 833 833 833 834 835 837 838 839 840 841 842 844 847 852 855 858 858 859 861 861 862 862 863 862 861 859 859
818 819 820 822 823 825 826 827 828 829 830 831 833 836 838 835 832 828 829 829 831 832 834 836 838 839 841 841 840 839 842 849 856 858 859 861 859 859 861 861 860 859 858
813 814 816 817 818 819 821 822 823 825 827 827 828 829 830 830 832 829 826 825 825 825 827 829 830 830 832 834 836 838 838 835 835 835 837 846 851 852 852 854 854 856 856
808 810 811 812 813 814 816 817 818 820 821 823 824 824 824 825 826 828 823 822 823 822 823 824 826 827 829 829 831 832 834 833 838 841 839 844 844 849 849 850 850 851 849
804 805 807 808 809 811 812 813 814 815 817 818 818 820 821 822 821 821 822 820 819 819 820 820 821 822 823 826 827 830 834 836 835 840 839 840 843 846 845 846 846 846 845
800 801 802 803 805 806 808 809 810 812 813 814 815 816 816 816 817 817 816 816 816 817 817 817 817 818 820 821 824 826 824 828 838 838 840 838 840 844 841 840 840 842 841
797 797 798 799 800 802 804 806 808 809 810 810 812 812 813 813 813 813 814 814 816 815 816 814 815 816 817 818 821 823 825 822 830 834 838 836 837 836 836 836 838 838 838
795 795 794 796 797 799 801 803 804 805 807 808 809 808 809 809 810 811 811 812 813 812 813 813 815 815 816 818 821 822 826 832 828 831 835 834 835 834 833 834 835 837 835
795 795 795 796 797 799 800 801 802 804 805 805 805 806 808 809 808 810 810 810 810 811 812 814 814 816 817 820 821 823 825 826 828 832 830 830 831 831 830 832 834 833 833
796 796 796 796 797 798 799 800 800 802 803 804 805 805 806 807 807 808 808 809 809 809 810 812 814 815 816 819 821 822 823 824 824 825 827 827 829 829 829 830 830 830 829
795 796 797 797 797 797 798 798 799 801 802 803 805 805 805 807 807 807 807 808 808 807 808 810 812 814 816 817 819 821 822 823 822 822 824 826 825 826 826 826 827 826 826
796 796 797 797 797 797 797 798 798 800 801 803 803 805 806 808 808 808 809 809 810 808 808 809 813 815 817 818 819 820 820 822 822 822 822 822 821 823 823 824 823 822 821
797 798 797 798 798 799 798 799 799 800 802 802 804 807 809 809 810 811 810 811 811 809 810 812 814 815 817 819 819 819 820 820 820 820 820 819 819 819 818 818 817 817 816
799 800 800 800 800 800 800 800 801 803 803 804 808 810 811 812 813 813 812 812 812 812 812 814 814 815 817 818 819 819 820 820 819 818 816 816 816 815 814 814 813 813 812
802 802 802 802 803 803 803 803 804 804 806 810 812 812 813 814 814 814 814 814 815 814 814 815 816 816 817 818 819 820 821 821 819 817 816 814 813 812 811 811 811 809 808
803 803 804 805 805 806 807 807 807 808 810 812 813 813 813 815 815 815 815 816 817 816 816 817 817 817 818 818 819 820 821 821 820 818 816 811 810 809 809 809 806 804 803
805 806 807 807 808 809 809 810 811 812 813 813 814 814 815 816 817 817 817 817 817 817 817 817 817 818 818 818 819 820 820 820 818 816 814 812 809 807 805 802 799 800 802
807 808 809 810 810 811 812 812 814 815 814 814 815 815 816 817 819 818 817 817 817 817 818 817 818 818 818 818 818 819 819 819 817 815 814 813 809 806 800 797 798 799 800
808 810 811 812 813 813 814 813 815 815 814 815 815 816 818 819 819 819 817 816 816 816 816 816 817 817 817 817 817 817 817 817 817 814 813 814 811 810 803 798 798 798 796
Wind_Speed
16 18 17 16 16 16 14 13 13 12 11 12 11 11 12 12 12 13 15 13 11 11 8 7 7 7 6 6 5 5 6 5 5 5 5 5 5 4 5 6 6 7 7
17 17 16 17 17 17 16 14 13 13 13 13 14 13 14 15 16 14 16 17 15 14 12 10 10 9 8 8 7 7 6 6 6 5 4 4 4 3 3 4 4 5 5
18 18 18 17 17 16 15 16 14 14 13 14 17 16 16 16 18 17 18 19 18 17 16 13 12 11 10 9 9 8 7 7 6 5 4 3 2 2 2 1 1 2 3
20 20 21 21 17 17 16 16 15 17 17 17 17 18 19 19 19 19 19 20 20 20 19 17 15 14 13 12 12 11 10 9 7 6 5 3 3 2 1 1 1 1 0
23 24 24 23 19 18 19 19 19 19 20 20 21 21 22 23 22 21 22 23 23 23 21 20 19 18 17 15 14 13 12 10 9 7 6 5 4 3 3 3 3 3 4
25 27 27 26 23 23 23 24 24 23 24 23 22 23 22 25 24 25 27 27 26 26 24 23 21 21 20 20 16 15 14 12 10 8 7 6 6 5 5 5 5 5 5
23 27 28 27 27 27 26 25 26 26 25 23 18 21 24 25 26 27 27 28 30 29 27 26 25 24 22 22 21 18 16 14 11 8 7 6 6 6 6 6 6 7 7
26 27 27 27 27 28 28 27 27 27 26 24 13 5 3 8 22 28 31 31 31 29 29 28 27 27 26 24 23 20 15 14 11 8 7 7 7 6 6 6 7 8 9
27 27 27 29 29 28 30 30 28 28 26 24 23 11 1 4 3 7 12 19 28 29 27 26 27 27 28 27 25 23 23 15 9 6 6 8 6 5 7 8 8 9 11
25 23 26 27 29 29 29 30 29 29 29 22 18 23 27 12 3 3 5 8 11 16 23 30 28 26 27 29 28 27 28 28 32 32 27 18 12 10 9 8 8 10 13
21 22 23 24 24 22 22 22 24 25 26 23 25 18 20 25 19 8 7 6 9 11 15 20 22 23 23 25 27 29 30 27 26 17 16 20 18 17 14 14 15 20 17
20 20 19 18 18 19 17 16 15 13 16 21 22 21 21 10 6 11 7 10 8 12 19 18 18 23 23 23 22 24 24 19 18 19 19 19 19 19 19 21 20 15 14
14 17 20 18 18 18 16 15 14 12 9 11 12 15 16 21 23 20 16 7 6 7 6 12 16 17 18 19 21 24 24 21 20 16 15 16 16 24 23 14 14 17 15
13 15 16 19 18 16 15 14 11 8 7 9 11 9 9 12 13 16 15 4 2 4 6 7 8 11 14 14 16 19 21 20 19 16 18 16 17 15 13 13 16 14 13
4 5 8 10 11 12 11 11 10 9 13 9 8 8 10 8 9 10 9 10 5 2 2 1 3 4 6 8 9 17 19 16 11 14 16 17 17 17 14 13 13 14 12
4 5 6 7 8 8 7 7 7 12 8 6 6 6 4 5 4 5 4 5 5 3 2 1 2 4 7 10 15 14 16 16 15 15 13 12 12 11 11 12 13 14 14
4 4 5 5 5 5 5 6 6 5 3 2 1 1 1 1 1 2 3 4 4 4 3 1 0 3 5 10 12 13 13 13 12 11 11 11 10 10 11 12 13 12 13
4 4 4 4 5 5 6 6 6 6 6 4 3 2 2 1 1 2 2 2 2 3 4 4 2 2 2 5 5 5 5 4 4 5 6 8 8 10 11 12 12 13 13
6 6 5 6 6 6 6 7 7 8 7 6 5 4 4 3 5 6 6 5 5 5 3 5 4 4 3 3 3 3 1 3 6 6 7 8 9 10 12 12 10 10 11
6 6 7 7 8 8 9 10 11 12 13 13 11 10 9 8 8 7 7 7 6 8 8 8 7 6 4 2 2 2 3 3 5 8 11 14 11 9 11 12 12 11 13
9 9 10 11 11 11 11 11 13 14 16 17 15 15 14 12 9 7 6 6 5 6 6 7 6 4 3 2 1 0 2 5 10 12 8 6 10 14 12 10 11 12 13
13 13 13 13 14 15 13 13 14 17 16 15 14 12 9 7 9 9 9 8 6 5 5 4 3 3 1 0 1 0 3 4 4 3 9 16 13 9 7 8 10 13 14
12 14 16 16 17 15 14 15 14 14 13 12 11 9 7 7 6 5 5 4 6 6 5 3 2 1 1 1 1 3 4 6 7 10 15 12 8 9 8 14 19 14 9
16 16 16 16 16 14 13 12 10 10 11 11 10 8 8 7 7 5 4 1 1 2 3 2 3 3 3 5 6 6 6 7 11 12 4 5 10 16 21 19 10 3 3
16 15 14 13 14 13 11 11 9 9 9 9 8 9 6 6 5 5 4 2 1 0 0 1 1 2 2 3 6 7 9 8 7 4 6 5 8 23 21 7 1 5 8
14 13 15 12 10 10 7 6 5 5 5 5 5 5 4 4 4 4 5 4 2 2 3 4 4 4 4 3 4 6 6 6 4 5 3 8 11 12 10 7 2 12 20
Wind_Direction
208 207 211 217 220 223 225 232 234 237 240 231 225 230 243 247 254 263 243 243 241 248 249 239 221 215 212 210 206 198 185 177 168 158 152 138 134 121 116 111 103 93 87
220 214 215 220 226 232 237 240 243 244 246 238 235 243 251 254 260 261 243 243 240 249 258 240 226 223 223 224 223 215 209 196 188 177 170 158 153 144 126 116 112 102 93
227 228 226 228 233 235 238 239 243 241 242 239 242 249 259 261 264 261 245 241 244 248 259 254 233 232 229 230 232 232 225 216 206 193 185 179 175 180 165 141 119 111 97
230 231 232 232 236 235 237 236 238 238 241 245 250 255 260 259 261 256 246 245 247 251 256 258 249 235 231 230 230 231 230 224 218 213 207 210 203 207 250 249 289 333 81
234 235 237 236 237 238 240 241 240 243 248 252 256 260 261 256 258 254 251 250 253 255 253 257 252 249 238 231 234 234 233 233 231 229 226 231 240 233 255 268 288 300 304
236 235 240 241 240 241 242 242 245 247 253 259 259 260 256 254 256 254 255 257 257 256 254 253 253 249 247 241 237 239 237 236 240 240 239 244 255 262 266 284 292 298 300
238 237 241 243 242 244 248 248 248 248 250 252 258 262 261 259 258 257 257 257 256 255 253 253 250 250 248 245 242 238 239 234 231 243 251 264 268 274 275 282 296 304 306
234 236 241 245 246 247 249 251 246 244 247 251 239 235 292 271 262 262 259 257 257 257 256 255 253 249 246 246 243 238 241 245 230 234 263 275 280 280 286 292 298 301 301
239 243 245 249 250 249 250 251 250 246 250 258 249 227 295 235 328 270 271 266 259 259 262 264 259 255 251 242 234 225 220 224 234 253 276 278 260 274 294 297 299 302 301
249 245 246 249 251 255 254 255 260 260 258 251 249 245 243 248 236 308 269 268 264 263 264 260 259 255 251 248 240 234 225 214 218 217 230 213 212 218 225 260 287 302 307
254 252 253 257 258 256 256 257 261 265 265 254 250 249 244 246 245 236 280 257 273 265 263 258 256 257 257 249 243 240 234 227 225 222 207 210 212 243 241 240 262 265 257
250 249 250 249 248 251 251 253 263 264 268 264 263 259 257 236 223 224 244 262 236 264 267 266 261 255 254 253 246 242 241 230 208 223 230 234 241 243 251 264 267 270 276
251 249 242 238 238 245 253 258 253 251 258 262 272 270 269 260 261 255 250 254 241 255 269 268 263 264 261 254 253 246 234 229 245 221 237 242 247 260 263 267 282 277 281
251 248 242 236 239 244 250 247 233 233 258 269 265 260 268 264 267 267 247 245 277 246 254 252 271 265 264 261 255 248 231 204 205 237 253 266 263 270 273 284 279 282 283
199 207 212 214 219 227 214 208 231 248 267 261 259 275 271 267 277 278 266 265 233 272 253 315 269 257 244 234 216 210 204 221 228 244 254 265 264 268 277 278 281 279 281
181 176 171 173 179 193 206 217 234 254 243 245 263 258 266 273 273 269 269 260 244 225 222 14 230 255 222 212 200 217 226 239 249 257 260 263 268 276 277 278 276 279 280
184 196 199 203 209 215 217 226 212 209 222 250 182 125 174 175 203 226 254 244 230 212 167 81 155 237 228 235 236 246 255 256 257 255 259 261 268 278 278 279 279 279 281
178 181 183 180 168 166 163 166 163 147 144 138 139 148 104 132 139 85 106 128 154 158 164 148 146 138 187 212 223 233 237 245 271 270 263 267 272 273 278 280 280 282 278
136 135 135 131 127 126 130 131 134 137 129 129 116 104 107 119 110 102 105 104 99 92 108 142 122 118 109 151 183 214 241 249 257 259 253 252 268 276 276 276 275 276 277
118 119 116 115 111 115 115 118 120 116 114 103 96 96 99 98 96 103 102 95 91 87 88 98 97 105 110 137 146 190 229 264 265 263 272 277 267 283 278 273 279 278 277
113 115 117 109 108 107 109 119 118 118 110 105 103 94 86 78 78 83 79 78 70 79 93 99 103 114 122 136 186 256 297 299 293 289 294 271 267 290 284 274 279 282 283
115 112 108 104 100 91 98 107 116 111 108 112 111 107 101 98 85 73 68 69 58 64 78 87 87 103 103 111 122 335 325 320 313 291 314 299 297 284 284 275 286 289 279
126 117 109 104 100 97 99 102 101 103 109 109 104 101 89 80 68 64 67 73 74 59 38 42 45 349 282 264 290 307 311 299 284 305 314 307 306 301 300 297 298 288 286
125 119 114 113 105 98 98 102 103 106 108 100 95 88 82 73 49 31 23 21 46 36 27 3 8 348 324 303 297 295 297 297 305 309 315 278 312 312 316 316 296 246 183
131 125 122 121 110 101 103 102 108 111 104 96 90 80 76 83 47 10 359 330 314 199 186 49 23 347 318 294 297 271 279 290 314 304 312 304 325 331 326 339 227 234 231
141 139 131 116 108 111 103 103 102 102 102 106 98 98 73 36 14 358 343 342 318 310 318 305 280 280 290 282 283 275 282 278 272 304 348 343 329 346 326 314 298 291 304